Content
SEND FEEDBACK

Daily
Averages
Monthly
Summary
Canada

QUEBEC CITY, QUEBEC


Home > North America > Canada > Quebec
Elevation: 239 feet     Latitude: 46 48N     Longitude: 071 23W

WEATHER
 
SELECT A DAY
Number of Records: 198,063;   Date Range: 6/30/96 - 12/18/14
 
SHARE

PRINT THIS DATA

[ ← Previous Day ]
WEATHER ALMANAC - JULY 4, 2014
[ Next Day → ]
[ °C ]   °F
Weather ElementAverageHighLow
Temperature66.5 °F71.6 °F (3:00 pm)60 °F (5:00 am)
Dewpoint58.3 °F64.4 °F (1:00 am)42 °F (11:00 pm)
Humidity75.2 %100 % (1:00 am)32 % (11:00 pm)
Barometer29.97 in30.00 in (4:00 pm)29.89 in (2:00 am)
Wind Speed4.7 mph10.4 mph (1:00 pm)
Weather ElementAverage
Visibility15.4 mi
Wind DirectionSSW (208.6 °)

Weather ElementTotal
Precipitation---
Cooling Degree Days0.8 (Base 65)
Growing Degree Days15.8 (Base 50)
Averaged from 36 records on July 4, 2014
WEATHER CONDITIONS BREAKOUT
WIND DIRECTION BREAKOUT
WEATHER BY HOUR - JULY 4, 2014
[ °C ]   °F
Local TimeTemperatureDewpointHumidityBarometerVisibilityWind DirectionWind SpeedGust SpeedPrecipitationEventsConditions
1:00 AM64.4 °F64.4 °F100 %29.92 in10.0 miWest (260°)3.5 mphOvercast
2:00 AM64.0 °F63.0 °F94 %29.89 inWest (280°)2.3 mph
2:00 AM64.4 °F62.6 °F94 %29.91 in15.0 miNW (310°)2.3 mphOvercast
3:00 AM64.4 °F62.6 °F94 %29.90 in15.0 miVariable2.3 mphMostly Cloudy
4:00 AM62.6 °F62.6 °F100 %29.91 in15.0 miWSW (240°)2.3 mphMostly Cloudy
5:00 AM60.8 °F60.8 °F100 %29.91 in15.0 miCalmMostly Cloudy
5:00 AM60.0 °F59.0 °F94 %29.90 inWSW (240°)1.2 mph
6:00 AM62.6 °F60.8 °F94 %29.92 in10.0 miSW (230°)3.5 mphFogShallow Fog
7:00 AM64.4 °F62.6 °F94 %29.95 in8.0 miWSW (240°)5.8 mphFogMostly Cloudy
8:00 AM64.4 °F62.6 °F94 %29.97 in8.0 miWest (270°)3.5 mphMostly Cloudy
8:00 AM65.0 °F63.0 °F90 %29.96 inWest (260°)3.5 mph
8:47 AM66.2 °F62.6 °F88 %29.98 in8.0 miSouth (180°)4.6 mphMostly Cloudy
9:00 AM66.2 °F62.6 °F88 %29.99 in8.0 miSouth (190°)4.6 mphMostly Cloudy
9:36 AM68.0 °F64.4 °F88 %29.99 in8.0 miSW (230°)4.6 mphMostly Cloudy
10:00 AM68.0 °F62.6 °F83 %29.99 in8.0 miSSW (210°)4.6 mphMostly Cloudy
10:36 AM69.8 °F62.6 °F78 %29.99 in10.0 miSE (130°)3.5 mphMostly Cloudy
11:00 AM69.0 °F62.0 °F73 %SSE (160°)4.6 mph
11:00 AM69.8 °F62.6 °F78 %29.99 in12.0 miSouth (180°)6.9 mphMostly Cloudy
11:30 AM68.0 °F60.8 °F78 %29.99 in30.0 miWNW (290°)4.6 mphRainLight Rain Showers
12:00 PM68.0 °F59.0 °F73 %29.99 in15.0 miNE (50°)5.8 mphMostly Cloudy
12:45 PM66.2 °F59.0 °F78 %29.99 in15.0 miNNE (30°)9.2 mphRainLight Rain Showers
1:00 PM68.0 °F59.0 °F73 %29.99 in15.0 miNNE (30°)10.4 mphMostly Cloudy
2:00 PM68.0 °F55.0 °F54 %29.98 inNorth (10°)4.6 mph
2:00 PM68.0 °F53.6 °F60 %29.99 in15.0 miNNE (20°)6.9 mphMostly Cloudy
3:00 PM71.6 °F60.8 °F69 %29.99 in15.0 miVariable2.3 mphMostly Cloudy
4:00 PM69.8 °F53.6 °F56 %30.00 in25.0 miSW (220°)6.9 mphOvercast
5:00 PM69.8 °F55.4 °F60 %29.97 in25.0 miNW (310°)5.8 mphOvercast
5:00 PM70.0 °F56.0 °F52 %29.96 inWNW (300°)4.6 mph
6:00 PM68.0 °F57.2 °F68 %29.97 in25.0 miWNW (300°)3.5 mphMostly Cloudy
7:00 PM68.0 °F55.4 °F64 %29.98 in25.0 miNW (320°)2.3 mphMostly Cloudy
8:00 PM68.0 °F53.0 °F49 %29.98 inNNW (330°)3.5 mph
8:00 PM68.0 °F53.6 °F60 %29.99 in25.0 miNW (320°)4.6 mphMostly Cloudy
9:00 PM66.2 °F53.6 °F64 %29.99 in20.0 miNNW (330°)8.1 mphMostly Cloudy
10:00 PM66.2 °F46.4 °F49 %29.99 in15.0 miNorth (360°)9.2 mphMostly Cloudy
11:00 PM65.0 °F42.0 °F32 %29.98 inNNW (340°)6.9 mph
11:00 PM64.4 °F42.8 °F45 %29.99 in15.0 miNNW (340°)6.9 mphOvercast
Hourly data recorded from CYQB, located miles away from Quebec City, Quebec







STORIES FROM OUR PARTNERS